Overview Statistics Trail Chart Weather Telemetry Raw packets
 

This is the latest recevied weather packets stored in our database for station/object VO2AGO. If no packets are shown the sender has not sent any weather packets the latest 10 day(s).

<< 14 15 16 17 18 19 20 >>
Time Temp. Humidity Pressure Rain* Wind** Luminosity Snow
1777980950 5.56° C - - - 0 m/s 1101 W/m² -
1777980500 5° C - - - 0 m/s 1021 W/m² -
1777980049 4.44° C - - - 0 m/s 939 W/m² -
1777979599 3.33° C - - - 0 m/s 874 W/m² -
1777979149 2.78° C - - - 0 m/s 795 W/m² -
1777978699 2.22° C - - - 0 m/s 368 W/m² -
1777978250 1.67° C - - - 0 m/s 593 W/m² -
1777977800 1.11° C - - - 0 m/s 215 W/m² -
1777977350 0° C - - - 0 m/s 274 W/m² -
1777976901 0° C - - - 0 m/s 143 W/m² -
1777976449 0° C - - - 0 m/s 130 W/m² -
1777975999 0° C - - - 0 m/s 121 W/m² -
1777975549 -0.56° C - - - 0 m/s 107 W/m² -
1777975100 -1.11° C - - - 0 m/s 103 W/m² -
1777974651 -1.11° C - - - 0 m/s 88 W/m² -
1777974200 -1.11° C - - - 0 m/s 81 W/m² -
1777973750 -1.11° C - - - 0 m/s 74 W/m² -
1777973300 -1.11° C - - - 0 m/s 66 W/m² -
1777972849 -0.56° C - - - 0 m/s 54 W/m² -
1777972399 -0.56° C - - - 0 m/s 44 W/m² -
1777971950 0° C - - - 0 m/s 32 W/m² -
1777971500 0° C - - - 0 m/s 22 W/m² -
1777971050 -0.56° C - - - 0 m/s 14 W/m² -
1777970600 0° C - - - 0 m/s 8 W/m² -
1777970150 -0.56° C - - - 0 m/s 4 W/m² -

* Rain since midnight (hover to see other rain measurements)
** Current wind speed in m/s (hover to see current wind gust speed)